Time,TemperatureF,DewpointF,PressureIn,WindDirection,WindDirectionDegrees,WindSpeedMPH,WindSpeedGustMPH,Humidity,HourlyPrecipIn,Conditions,Clouds,dailyrainin,SoftwareType,DateUTC
2014-07-29 00:01:00,57.7,54.0,30.01,SSE,160,0.0,0.0,87,0.00,,,0.00,meteobridge,2014-07-29 04:01:00,
2014-07-29 00:02:00,57.7,54.0,30.01,SSE,160,0.0,0.0,87,0.00,,,0.00,meteobridge,2014-07-29 04:02:00,
2014-07-29 00:07:00,57.6,53.8,30.01,SSE,160,0.0,0.0,87,0.00,,,0.00,meteobridge,2014-07-29 04:07:00,
2014-07-29 00:12:00,57.4,53.6,30.01,SSE,160,0.0,0.0,87,0.00,,,0.00,meteobridge,2014-07-29 04:12:00,
2014-07-29 00:17:00,57.2,53.6,30.01,SSE,160,0.0,0.0,88,0.00,,,0.00,meteobridge,2014-07-29 04:17:00,
2014-07-29 00:22:00,57.0,53.4,30.01,SSE,160,0.0,0.0,88,0.00,,,0.00,meteobridge,2014-07-29 04:22:00,
2014-07-29 00:27:00,56.8,53.2,30.01,SSE,160,0.0,0.0,88,0.00,,,0.00,meteobridge,2014-07-29 04:27:00,
2014-07-29 00:32:00,56.7,53.4,30.01,SSE,160,0.0,0.0,89,0.00,,,0.00,meteobridge,2014-07-29 04:32:00,
2014-07-29 00:37:00,56.5,53.2,30.01,SSE,160,0.0,0.0,89,0.00,,,0.00,meteobridge,2014-07-29 04:37:00,
2014-07-29 00:42:00,56.1,52.9,30.01,SSE,160,0.0,0.0,89,0.00,,,0.00,meteobridge,2014-07-29 04:42:00,
2014-07-29 00:47:00,55.9,53.1,30.01,SSE,160,0.0,0.0,90,0.00,,,0.00,meteobridge,2014-07-29 04:47:00,
2014-07-29 00:52:00,55.6,52.7,30.01,SSE,160,0.0,0.0,90,0.00,,,0.00,meteobridge,2014-07-29 04:52:00,
2014-07-29 00:57:00,55.2,52.3,30.01,SSE,160,0.0,0.0,90,0.00,,,0.00,meteobridge,2014-07-29 04:57:00,
2014-07-29 01:02:00,55.0,52.5,30.01,SSE,160,0.0,0.0,91,0.00,,,0.00,meteobridge,2014-07-29 05:02:00,
2014-07-29 01:07:00,55.0,52.7,30.01,SSE,160,0.0,0.0,92,0.00,,,0.00,meteobridge,2014-07-29 05:07:00,
2014-07-29 01:13:00,54.9,52.5,30.01,SSE,160,0.0,0.0,92,0.00,,,0.00,meteobridge,2014-07-29 05:13:00,
2014-07-29 01:18:00,54.7,52.3,30.01,SSE,160,0.0,0.0,92,0.00,,,0.00,meteobridge,2014-07-29 05:18:00,
2014-07-29 01:23:00,54.5,52.5,30.01,SSE,160,0.0,0.0,93,0.00,,,0.00,meteobridge,2014-07-29 05:23:00,
2014-07-29 01:28:00,54.5,52.5,30.01,SSE,160,0.0,0.0,93,0.00,,,0.00,meteobridge,2014-07-29 05:28:00,
2014-07-29 01:33:00,54.3,52.3,30.01,SSE,160,0.0,0.0,93,0.00,,,0.00,meteobridge,2014-07-29 05:33:00,
2014-07-29 01:38:00,54.3,52.0,30.02,SSE,159,0.0,0.0,92,0.00,,,0.00,meteobridge,2014-07-29 05:38:00,
2014-07-29 01:43:00,54.3,52.0,30.01,SSE,159,0.0,0.0,92,0.00,,,0.00,meteobridge,2014-07-29 05:43:00,
2014-07-29 01:48:00,54.3,52.0,30.01,SSE,160,0.0,0.0,92,0.00,,,0.00,meteobridge,2014-07-29 05:48:00,
2014-07-29 01:53:00,54.1,51.6,30.02,SSE,160,0.0,0.0,91,0.00,,,0.00,meteobridge,2014-07-29 05:53:00,
2014-07-29 01:58:00,54.1,51.6,30.02,SSE,160,0.0,0.0,91,0.00,,,0.00,meteobridge,2014-07-29 05:58:00,
2014-07-29 02:03:00,54.1,51.6,30.02,SSE,160,0.0,0.0,91,0.00,,,0.00,meteobridge,2014-07-29 06:03:00,
2014-07-29 02:08:00,54.1,51.6,30.02,SSE,160,0.0,0.0,91,0.00,,,0.00,meteobridge,2014-07-29 06:08:00,
2014-07-29 02:13:00,54.0,51.4,30.02,SSE,160,0.0,0.0,91,0.00,,,0.00,meteobridge,2014-07-29 06:13:00,
2014-07-29 02:18:00,53.8,51.3,30.02,SSE,160,0.0,0.0,91,0.00,,,0.00,meteobridge,2014-07-29 06:18:00,
2014-07-29 02:23:00,53.6,51.1,30.02,SSE,160,0.0,0.0,91,0.00,,,0.00,meteobridge,2014-07-29 06:23:00,
2014-07-29 02:28:00,53.4,50.9,30.02,SSE,160,0.0,0.0,91,0.00,,,0.00,meteobridge,2014-07-29 06:28:00,
2014-07-29 02:33:00,53.2,50.7,30.02,SSE,160,0.0,0.0,91,0.00,,,0.00,meteobridge,2014-07-29 06:33:00,
2014-07-29 02:38:00,53.1,50.5,30.02,SSE,160,0.0,0.0,91,0.00,,,0.00,meteobridge,2014-07-29 06:38:00,
2014-07-29 02:43:00,52.9,50.5,30.02,SSE,160,0.0,0.0,92,0.00,,,0.00,meteobridge,2014-07-29 06:43:00,
2014-07-29 02:48:00,52.5,50.2,30.02,SSE,160,0.0,0.0,92,0.00,,,0.00,meteobridge,2014-07-29 06:48:00,
2014-07-29 02:53:00,52.3,50.0,30.02,SSE,160,0.0,0.0,92,0.00,,,0.00,meteobridge,2014-07-29 06:53:00,
2014-07-29 02:58:00,52.3,50.4,30.02,SSE,160,0.0,0.0,93,0.00,,,0.00,meteobridge,2014-07-29 06:58:00,
2014-07-29 03:03:00,52.3,50.4,30.01,SSE,160,0.0,0.0,93,0.00,,,0.00,meteobridge,2014-07-29 07:03:00,
2014-07-29 03:08:00,52.2,50.5,30.01,SSE,160,0.0,0.0,94,0.00,,,0.00,meteobridge,2014-07-29 07:08:00,
2014-07-29 03:13:00,52.2,50.5,30.01,SSE,160,0.0,0.0,94,0.00,,,0.00,meteobridge,2014-07-29 07:13:00,
2014-07-29 03:19:00,52.2,50.5,30.01,SSE,160,0.0,0.0,94,0.00,,,0.00,meteobridge,2014-07-29 07:19:00,
2014-07-29 03:24:00,52.0,50.4,30.01,SSE,160,0.0,0.0,94,0.00,,,0.00,meteobridge,2014-07-29 07:24:00,
2014-07-29 03:29:00,52.0,50.4,30.01,SSE,160,0.0,0.0,94,0.00,,,0.00,meteobridge,2014-07-29 07:29:00,
2014-07-29 03:34:00,52.0,50.5,30.01,SSE,160,0.0,0.0,95,0.00,,,0.00,meteobridge,2014-07-29 07:34:00,
2014-07-29 03:39:00,51.8,50.2,30.01,SSE,160,0.0,0.0,94,0.00,,,0.00,meteobridge,2014-07-29 07:39:00,
2014-07-29 03:44:00,51.6,50.0,30.01,SSE,160,0.0,0.0,94,0.00,,,0.00,meteobridge,2014-07-29 07:44:00,
2014-07-29 03:49:00,51.6,50.2,30.01,SSE,160,0.0,0.0,95,0.00,,,0.00,meteobridge,2014-07-29 07:49:00,
2014-07-29 03:54:00,51.6,50.2,30.01,SSE,160,0.0,0.0,95,0.00,,,0.00,meteobridge,2014-07-29 07:54:00,
2014-07-29 03:59:00,51.6,50.2,30.01,SSE,160,0.0,0.0,95,0.00,,,0.00,meteobridge,2014-07-29 07:59:00,
2014-07-29 04:04:00,51.6,50.2,30.01,SSE,160,0.0,0.0,95,0.00,,,0.00,meteobridge,2014-07-29 08:04:00,
2014-07-29 04:09:00,51.6,50.2,30.01,SSE,160,0.0,0.0,95,0.00,,,0.00,meteobridge,2014-07-29 08:09:00,
2014-07-29 04:14:00,51.6,50.2,30.01,SSE,160,0.0,0.0,95,0.00,,,0.00,meteobridge,2014-07-29 08:14:00,
2014-07-29 04:19:00,51.6,50.2,30.01,SSE,160,0.0,0.0,95,0.00,,,0.00,meteobridge,2014-07-29 08:19:00,
2014-07-29 04:24:00,51.4,50.0,30.01,SSE,160,0.0,0.0,95,0.00,,,0.00,meteobridge,2014-07-29 08:24:00,
2014-07-29 04:29:00,51.4,50.0,30.01,SSE,160,0.0,0.0,95,0.00,,,0.00,meteobridge,2014-07-29 08:29:00,
2014-07-29 04:34:00,51.4,50.0,30.01,SSE,160,0.0,0.0,95,0.00,,,0.00,meteobridge,2014-07-29 08:34:00,
2014-07-29 04:39:00,51.4,50.0,30.01,SSE,160,0.0,0.0,95,0.00,,,0.00,meteobridge,2014-07-29 08:39:00,
2014-07-29 04:44:00,51.3,49.8,30.01,SSE,160,0.0,0.0,95,0.00,,,0.00,meteobridge,2014-07-29 08:44:00,
2014-07-29 04:49:00,51.3,49.8,30.01,SSE,160,0.0,0.0,95,0.00,,,0.00,meteobridge,2014-07-29 08:49:00,
2014-07-29 04:54:00,51.1,49.6,30.01,SSE,160,0.0,0.0,95,0.00,,,0.00,meteobridge,2014-07-29 08:54:00,
2014-07-29 04:59:00,51.1,49.6,30.01,SSE,160,0.0,0.0,95,0.00,,,0.00,meteobridge,2014-07-29 08:59:00,
2014-07-29 05:04:00,51.1,49.6,30.01,SSE,160,0.0,0.0,95,0.00,,,0.00,meteobridge,2014-07-29 09:04:00,
2014-07-29 05:09:00,50.9,49.5,30.01,SSE,160,0.0,0.0,95,0.00,,,0.00,meteobridge,2014-07-29 09:09:00,
2014-07-29 05:14:00,50.7,49.6,30.01,SSE,160,0.0,0.0,96,0.00,,,0.00,meteobridge,2014-07-29 09:14:00,
2014-07-29 05:19:00,50.7,49.6,30.01,SSE,160,0.0,0.0,96,0.00,,,0.00,meteobridge,2014-07-29 09:19:00,
2014-07-29 05:24:00,50.7,49.6,30.01,SSE,160,0.0,0.0,96,0.00,,,0.00,meteobridge,2014-07-29 09:24:00,
2014-07-29 05:29:00,50.5,49.5,30.02,SSE,160,0.0,0.0,96,0.00,,,0.00,meteobridge,2014-07-29 09:29:00,
2014-07-29 05:35:00,50.5,49.5,30.02,SSE,160,0.0,0.0,96,0.00,,,0.00,meteobridge,2014-07-29 09:35:00,
2014-07-29 05:40:00,50.5,49.5,30.02,SSE,160,0.0,0.0,96,0.00,,,0.00,meteobridge,2014-07-29 09:40:00,
2014-07-29 05:45:00,50.5,49.5,30.02,SSE,160,0.0,0.0,96,0.00,,,0.00,meteobridge,2014-07-29 09:45:00,
2014-07-29 05:50:00,50.5,49.5,30.02,SSE,160,0.0,0.0,96,0.00,,,0.00,meteobridge,2014-07-29 09:50:00,
2014-07-29 05:55:00,50.5,49.6,30.02,SSE,160,0.0,0.0,97,0.00,,,0.00,meteobridge,2014-07-29 09:55:00,
2014-07-29 06:00:00,50.7,49.8,30.02,SSE,160,0.0,0.0,97,0.00,,,0.00,meteobridge,2014-07-29 10:00:00,
2014-07-29 06:05:00,50.5,49.6,30.02,SSE,160,0.0,0.0,97,0.00,,,0.00,meteobridge,2014-07-29 10:05:00,
2014-07-29 06:10:00,50.5,49.6,30.02,SSE,160,0.0,0.0,97,0.00,,,0.00,meteobridge,2014-07-29 10:10:00,
2014-07-29 06:15:00,50.5,49.6,30.02,SSE,160,0.0,0.0,97,0.00,,,0.00,meteobridge,2014-07-29 10:15:00,
2014-07-29 06:20:00,50.5,49.6,30.03,SSE,160,0.0,0.0,97,0.00,,,0.00,meteobridge,2014-07-29 10:20:00,
2014-07-29 06:25:00,50.4,49.5,30.03,SSE,160,0.0,0.0,97,0.00,,,0.00,meteobridge,2014-07-29 10:25:00,
2014-07-29 06:30:00,50.4,49.5,30.03,SSE,160,0.0,0.0,97,0.00,,,0.00,meteobridge,2014-07-29 10:30:00,
2014-07-29 06:35:00,50.4,49.5,30.03,SSE,160,0.0,0.0,97,0.00,,,0.00,meteobridge,2014-07-29 10:35:00,
2014-07-29 06:40:00,50.4,49.5,30.03,SSE,160,0.0,0.0,97,0.00,,,0.00,meteobridge,2014-07-29 10:40:00,
2014-07-29 06:45:00,50.4,49.5,30.03,SSE,160,0.0,0.0,97,0.00,,,0.00,meteobridge,2014-07-29 10:45:00,
2014-07-29 06:50:00,50.4,49.5,30.03,SSE,160,0.0,0.0,97,0.00,,,0.00,meteobridge,2014-07-29 10:50:00,
2014-07-29 06:55:00,50.4,49.5,30.03,SSE,160,0.0,0.0,97,0.00,,,0.00,meteobridge,2014-07-29 10:55:00,
2014-07-29 07:00:00,50.4,49.5,30.03,SSE,160,0.0,0.0,97,0.00,,,0.00,meteobridge,2014-07-29 11:00:00,
2014-07-29 07:05:00,50.5,50.0,30.03,SSE,160,0.0,0.0,98,0.00,,,0.00,meteobridge,2014-07-29 11:05:00,
2014-07-29 07:10:00,50.5,50.0,30.03,SSE,160,0.0,0.0,98,0.00,,,0.00,meteobridge,2014-07-29 11:10:00,
2014-07-29 07:15:00,50.7,50.2,30.03,SSE,160,0.0,0.0,98,0.00,,,0.00,meteobridge,2014-07-29 11:15:00,
2014-07-29 07:20:00,50.7,50.2,30.03,SSE,160,0.0,0.0,98,0.00,,,0.00,meteobridge,2014-07-29 11:20:00,
2014-07-29 07:25:00,50.9,50.4,30.04,SSE,160,0.0,0.0,98,0.00,,,0.00,meteobridge,2014-07-29 11:25:00,
2014-07-29 07:30:00,51.1,50.5,30.04,SSE,160,0.0,0.0,98,0.00,,,0.00,meteobridge,2014-07-29 11:30:00,
2014-07-29 07:35:00,51.1,50.5,30.04,SSE,159,0.0,0.0,98,0.00,,,0.00,meteobridge,2014-07-29 11:35:00,
2014-07-29 07:40:00,51.3,50.7,30.04,SSE,160,0.0,0.0,98,0.00,,,0.00,meteobridge,2014-07-29 11:40:00,
2014-07-29 07:46:00,51.4,50.9,30.04,SSE,160,0.0,0.0,98,0.00,,,0.00,meteobridge,2014-07-29 11:46:00,
2014-07-29 07:51:00,51.6,51.1,30.04,SSE,160,0.0,0.0,98,0.00,,,0.00,meteobridge,2014-07-29 11:51:00,
2014-07-29 07:56:00,51.8,51.3,30.04,SSE,160,0.0,0.0,98,0.00,,,0.00,meteobridge,2014-07-29 11:56:00,
2014-07-29 08:01:00,52.2,51.6,30.05,SSE,159,0.0,0.0,98,0.00,,,0.00,meteobridge,2014-07-29 12:01:00,
2014-07-29 08:06:00,52.3,51.8,30.05,SSE,159,0.0,0.0,98,0.00,,,0.00,meteobridge,2014-07-29 12:06:00,
2014-07-29 08:11:00,52.5,51.6,30.05,SSE,159,0.0,0.0,97,0.00,,,0.00,meteobridge,2014-07-29 12:11:00,
2014-07-29 08:16:00,52.9,52.0,30.05,SE,145,0.0,1.0,97,0.00,,,0.00,meteobridge,2014-07-29 12:16:00,
2014-07-29 08:21:00,53.1,52.2,30.05,East,89,0.0,1.0,97,0.00,,,0.00,meteobridge,2014-07-29 12:21:00,
2014-07-29 08:26:00,53.2,52.2,30.05,SE,127,0.0,0.0,96,0.00,,,0.00,meteobridge,2014-07-29 12:26:00,
2014-07-29 08:31:00,53.8,52.7,30.05,SSE,147,0.0,1.0,96,0.00,,,0.00,meteobridge,2014-07-29 12:31:00,
2014-07-29 08:36:00,54.0,52.5,30.06,SE,134,0.0,0.0,95,0.00,,,0.00,meteobridge,2014-07-29 12:36:00,
2014-07-29 08:41:00,54.3,52.9,30.06,SE,134,0.0,0.0,95,0.00,,,0.00,meteobridge,2014-07-29 12:41:00,
2014-07-29 08:46:00,54.9,53.4,30.06,SE,133,0.0,0.0,95,0.00,,,0.00,meteobridge,2014-07-29 12:46:00,
2014-07-29 08:51:00,55.2,53.8,30.06,SE,133,0.0,0.0,95,0.00,,,0.00,meteobridge,2014-07-29 12:51:00,
2014-07-29 08:56:00,55.6,54.0,30.06,SE,131,0.0,0.0,94,0.00,,,0.00,meteobridge,2014-07-29 12:56:00,
2014-07-29 09:01:00,55.9,54.3,30.06,SE,126,0.0,1.0,94,0.00,,,0.00,meteobridge,2014-07-29 13:01:00,
2014-07-29 09:06:00,56.5,54.1,30.06,SE,142,0.0,0.0,92,0.00,,,0.00,meteobridge,2014-07-29 13:06:00,
2014-07-29 09:11:00,57.2,55.2,30.06,SE,142,0.0,0.0,93,0.00,,,0.00,meteobridge,2014-07-29 13:11:00,
2014-07-29 09:16:00,57.9,55.0,30.06,SE,139,0.0,1.0,90,0.00,,,0.00,meteobridge,2014-07-29 13:16:00,
2014-07-29 09:21:00,58.6,54.9,30.07,ESE,120,0.0,1.0,87,0.00,,,0.00,meteobridge,2014-07-29 13:21:00,
2014-07-29 09:26:00,59.0,55.4,30.07,SE,124,0.0,1.0,88,0.00,,,0.00,meteobridge,2014-07-29 13:26:00,
2014-07-29 09:31:00,59.5,55.0,30.07,South,169,0.0,0.0,85,0.00,,,0.00,meteobridge,2014-07-29 13:31:00,
2014-07-29 09:36:00,60.4,55.6,30.07,ESE,104,0.0,1.0,84,0.00,,,0.00,meteobridge,2014-07-29 13:36:00,
2014-07-29 09:41:00,61.5,57.0,30.07,South,181,0.0,1.0,85,0.00,,,0.00,meteobridge,2014-07-29 13:41:00,
2014-07-29 09:46:00,62.4,56.5,30.07,SW,215,0.0,0.0,81,0.00,,,0.00,meteobridge,2014-07-29 13:46:00,
2014-07-29 09:51:00,63.1,55.8,30.07,SW,217,0.9,1.0,77,0.00,,,0.00,meteobridge,2014-07-29 13:51:00,
2014-07-29 09:56:00,63.7,56.3,30.07,South,173,0.0,1.0,77,0.00,,,0.00,meteobridge,2014-07-29 13:56:00,
2014-07-29 10:01:00,64.2,55.4,30.07,West,264,0.9,2.0,73,0.00,,,0.00,meteobridge,2014-07-29 14:01:00,
2014-07-29 10:06:00,63.9,55.0,30.07,West,274,0.0,2.0,73,0.00,,,0.00,meteobridge,2014-07-29 14:06:00,
2014-07-29 10:11:00,64.0,57.0,30.07,ENE,75,0.0,0.0,78,0.00,,,0.00,meteobridge,2014-07-29 14:11:00,
2014-07-29 10:16:00,64.8,55.9,30.07,WSW,248,0.0,1.0,73,0.00,,,0.00,meteobridge,2014-07-29 14:16:00,
2014-07-29 10:21:00,65.7,57.9,30.07,East,79,0.0,1.0,76,0.00,,,0.00,meteobridge,2014-07-29 14:21:00,
2014-07-29 10:26:00,66.7,56.3,30.07,ESE,113,0.0,1.0,69,0.00,,,0.00,meteobridge,2014-07-29 14:26:00,
2014-07-29 10:31:00,66.9,56.5,30.07,SSW,205,0.9,1.0,69,0.00,,,0.00,meteobridge,2014-07-29 14:31:00,
2014-07-29 10:36:00,66.7,57.4,30.07,SSE,164,0.0,1.0,72,0.00,,,0.00,meteobridge,2014-07-29 14:36:00,
2014-07-29 10:41:00,67.1,57.7,30.07,SSE,153,0.0,0.0,72,0.00,,,0.00,meteobridge,2014-07-29 14:41:00,
2014-07-29 10:46:00,67.5,57.0,30.07,SW,235,0.0,1.0,69,0.00,,,0.00,meteobridge,2014-07-29 14:46:00,
2014-07-29 10:51:00,67.8,55.6,30.07,ENE,77,0.0,1.0,65,0.00,,,0.00,meteobridge,2014-07-29 14:51:00,
2014-07-29 10:56:00,68.4,56.1,30.08,WSW,249,0.0,1.0,65,0.00,,,0.00,meteobridge,2014-07-29 14:56:00,
2014-07-29 11:01:00,68.7,56.1,30.08,NW,325,0.0,1.0,64,0.00,,,0.00,meteobridge,2014-07-29 15:01:00,
2014-07-29 11:06:00,68.5,55.4,30.08,SW,236,0.0,1.0,63,0.00,,,0.00,meteobridge,2014-07-29 15:06:00,
2014-07-29 11:11:00,68.9,56.7,30.08,SSE,147,0.0,0.0,65,0.00,,,0.00,meteobridge,2014-07-29 15:11:00,
2014-07-29 11:16:00,69.3,55.2,30.08,South,169,0.0,2.0,61,0.00,,,0.00,meteobridge,2014-07-29 15:16:00,
2014-07-29 11:21:00,69.8,56.7,30.08,WSW,237,0.0,1.0,63,0.00,,,0.00,meteobridge,2014-07-29 15:21:00,
2014-07-29 11:26:00,70.3,55.8,30.08,WSW,246,0.0,1.0,60,0.00,,,0.00,meteobridge,2014-07-29 15:26:00,
2014-07-29 11:31:00,70.7,57.9,30.08,SE,125,0.0,1.0,64,0.00,,,0.00,meteobridge,2014-07-29 15:31:00,
2014-07-29 11:36:00,71.1,56.8,30.08,ESE,110,0.0,1.0,61,0.00,,,0.00,meteobridge,2014-07-29 15:36:00,
2014-07-29 11:41:00,71.4,58.1,30.09,ESE,123,0.9,1.0,63,0.00,,,0.00,meteobridge,2014-07-29 15:41:00,
2014-07-29 11:46:00,70.7,58.3,30.09,ESE,123,0.9,2.0,65,0.00,,,0.00,meteobridge,2014-07-29 15:46:00,
2014-07-29 11:51:00,70.5,56.5,30.09,East,87,0.0,1.0,61,0.00,,,0.00,meteobridge,2014-07-29 15:51:00,
2014-07-29 11:56:00,70.7,57.0,30.08,ESE,115,0.0,1.0,62,0.00,,,0.00,meteobridge,2014-07-29 15:56:00,